{"data":{"norad_id":48238,"intl_designator":"2021-031AE","name":"ONEWEB-0193","alt_names":[],"object_type":"PAYLOAD","status":"ACTIVE","operator":null,"country":"UK","launch_date":"2021-04-25","launch_site_code":"VOSTO","launch_vehicle":null,"mission":null,"orbit_class":"UNKNOWN","rcs_meters":null,"size_class":null,"mass_kg":null,"dimensions":null,"purposes":["comms"],"wikipedia_slug":null,"has_3d_model":false,"image_url":null,"decayed_at":null,"tle_current":{"epoch":"2026-05-25T03:47:40.438752Z","epoch_age_seconds":68362,"freshness":"FRESH","line1":"1 48238U 21031AE  26145.15810693  .00000099  00000+0  23191-3 0  9999","line2":"2 48238  87.8940 294.2915 0001863  84.3547 275.7795 13.14501246245284","mean_motion":13.14501246,"eccentricity":0.0001863,"inclination_deg":87.894,"raan_deg":294.2915,"arg_perigee_deg":84.3547,"mean_anomaly_deg":275.7795,"bstar":0.00023191,"rev_number":24528,"period_min":109.54725257065,"perigee_km":1204.383444996,"apogee_km":1207.2092185554,"semimajor_km":7583.9333317757,"source":"CELESTRAK","updated_at":"2026-05-25T13:38:22.439399Z"}}}